TimePST,TemperatureF,Dew PointF,Humidity,Sea Level PressureIn,VisibilityMPH,Wind Direction,Wind SpeedMPH,Gust SpeedMPH,PrecipitationIn,Events,Conditions,WindDirDegrees,DateUTC
12:00 AM,44.8,37.4,75,29.72,-9999.0,NW,17.3,-,N/A,,Unknown,320,2014-01-12 08:00:00
1:00 AM,45.0,36.1,71,29.76,-9999.0,NW,18.4,-,N/A,,Unknown,320,2014-01-12 09:00:00
2:00 AM,44.4,36.9,75,29.81,-9999.0,NW,16.1,-,N/A,,Unknown,310,2014-01-12 10:00:00
3:00 AM,44.6,36.3,73,29.84,-9999.0,NW,13.8,-,N/A,,Unknown,310,2014-01-12 11:00:00
4:00 AM,44,35,61,29.87,,North,6.9,,,,,350,2014-01-12 12:00:00
4:00 AM,44.1,34.9,70,29.87,-9999.0,North,6.9,-,N/A,,Unknown,350,2014-01-12 12:00:00
5:00 AM,44.2,36.3,74,29.88,-9999.0,North,5.8,-,N/A,,Unknown,360,2014-01-12 13:00:00
6:00 AM,43.0,34.7,73,29.90,-9999.0,NE,4.6,-,0.02,,Unknown,50,2014-01-12 14:00:00
7:00 AM,42.1,36.3,80,29.91,-9999.0,ESE,10.4,-,0.02,,Unknown,110,2014-01-12 15:00:00
8:00 AM,42.3,37.0,82,29.91,-9999.0,ESE,16.1,-,0.01,,Unknown,110,2014-01-12 16:00:00
9:00 AM,42.4,37.8,83,29.94,-9999.0,ESE,19.6,-,N/A,,Unknown,110,2014-01-12 17:00:00
10:00 AM,43,38,77,29.94,,ESE,25.3,,,,,110,2014-01-12 18:00:00
10:00 AM,42.6,38.3,85,29.94,-9999.0,ESE,25.3,-,N/A,,Unknown,110,2014-01-12 18:00:00
11:00 AM,42.4,39.9,91,29.96,-9999.0,East,25.3,-,N/A,,Unknown,90,2014-01-12 19:00:00
12:00 PM,43.5,40.3,88,29.96,-9999.0,ESE,23.0,-,N/A,,Unknown,120,2014-01-12 20:00:00
1:00 PM,41.9,39.2,90,29.95,-9999.0,East,24.2,-,N/A,,Unknown,100,2014-01-12 21:00:00
2:00 PM,42.4,39.0,88,29.97,-9999.0,East,23.0,-,N/A,,Unknown,100,2014-01-12 22:00:00
3:00 PM,43.3,39.7,87,30.01,-9999.0,East,19.6,-,N/A,,Unknown,100,2014-01-12 23:00:00
4:00 PM,43,40,83,30.02,,ESE,18.4,,,,,110,2014-01-13 00:00:00
4:00 PM,43.2,39.6,87,30.02,-9999.0,ESE,18.4,-,N/A,,Unknown,110,2014-01-13 00:00:00
5:00 PM,43.5,39.7,87,30.04,-9999.0,ESE,18.4,-,N/A,,Unknown,110,2014-01-13 01:00:00
6:00 PM,43.3,39.7,87,30.04,-9999.0,East,15.0,-,N/A,,Unknown,100,2014-01-13 02:00:00
7:00 PM,43.5,39.9,87,30.05,-9999.0,East,13.8,-,N/A,,Unknown,90,2014-01-13 03:00:00
8:00 PM,43.2,39.9,88,30.07,-9999.0,ENE,12.7,-,N/A,,Unknown,60,2014-01-13 04:00:00
9:00 PM,43.5,38.3,82,30.10,-9999.0,ENE,9.2,-,N/A,,Unknown,70,2014-01-13 05:00:00
10:00 PM,43,40,85,30.12,,East,5.8,,,,,90,2014-01-13 06:00:00
10:00 PM,43.3,38.3,82,30.12,-9999.0,East,5.8,-,N/A,,Unknown,90,2014-01-13 06:00:00
11:00 PM,43.0,40.6,91,30.15,-9999.0,ESE,5.8,-,N/A,,Unknown,120,2014-01-13 07:00:00